Overview Statistics Trail Chart Weather Telemetry Raw packets
 

This is the latest recevied weather packets stored in our database for station/object W8KHW. If no packets are shown the sender has not sent any weather packets the latest 10 day(s).

<< 5 6 7 8 9 10 11 >>
Time Temp. Humidity Pressure Rain* Wind** Luminosity Snow
1777832950 16.67° C 39% 1017 hPa 0 mm - - -
1777832430 16.11° C 45% 1017.1 hPa 0 mm - - -
1777831930 16.11° C 40% 1017.1 hPa 0 mm - - -
1777831429 15.56° C 40% 1017.4 hPa 0 mm - - -
1777830929 15.56° C 39% 1017.4 hPa 0 mm - - -
1777830429 16.11° C 42% 1017.7 hPa 0 mm - - -
1777829929 15.56° C 39% 1017.8 hPa 0 mm - - -
1777829429 15.56° C 42% 1017.6 hPa 0 mm - - -
1777828929 16.67° C 40% 1017.9 hPa 0 mm - - -
1777828428 15.56° C 38% 1017.9 hPa 0 mm - - -
1777827928 15° C 44% 1017.8 hPa 0 mm - - -
1777827428 15.56° C 44% 1018 hPa 0 mm - - -
1777826928 15° C 40% 1018.3 hPa 0 mm - - -
1777826427 17.22° C 44% 1018.3 hPa 0 mm - - -
1777825927 15° C 43% 1018.2 hPa 0 mm - - -
1777825427 15° C 42% 1018.2 hPa 0 mm - - -
1777824927 15° C 42% 1018.3 hPa 0 mm - - -
1777824430 15° C 41% 1018.3 hPa 0 mm - - -
1777823927 14.44° C 43% 1018.3 hPa 0 mm - - -
1777823426 14.44° C 46% 1018.4 hPa 0 mm - - -
1777822926 13.89° C 45% 1018.6 hPa 0 mm - - -
1777822426 14.44° C 48% 1018.9 hPa 0 mm - - -
1777821926 13.33° C 50% 1018.7 hPa 0 mm - - -
1777821425 13.33° C 47% 1018.8 hPa 0 mm - - -
1777820925 13.33° C 48% 1018.8 hPa 0 mm - - -

* Rain latest hour (hover to see other rain measurements)
** Current wind speed in m/s (hover to see current wind gust speed)